Year,Month,Day,Hour,Minute,Value (Times are PST for temperature in C)
2016,08,19,00,00,23.60
2016,08,19,00,01,23.60
2016,08,19,00,02,23.70
2016,08,19,00,03,23.70
2016,08,19,00,04,23.70
2016,08,19,00,05,23.70
2016,08,19,00,06,23.70
2016,08,19,00,07,23.70
2016,08,19,00,08,23.70
2016,08,19,00,09,23.70
2016,08,19,00,10,23.70
2016,08,19,00,11,23.60
2016,08,19,00,12,23.50
2016,08,19,00,13,23.50
2016,08,19,00,14,23.40
2016,08,19,00,15,23.40
2016,08,19,00,16,23.40
2016,08,19,00,17,23.40
2016,08,19,00,18,23.50
2016,08,19,00,19,23.50
2016,08,19,00,20,23.50
2016,08,19,00,21,23.60
2016,08,19,00,22,23.60
2016,08,19,00,23,23.60
2016,08,19,00,24,23.60
2016,08,19,00,25,23.60
2016,08,19,00,26,23.70
2016,08,19,00,27,23.80
2016,08,19,00,28,23.80
2016,08,19,00,29,23.90
2016,08,19,00,30,24.00
2016,08,19,00,31,24.20
2016,08,19,00,32,24.30
2016,08,19,00,33,24.40
2016,08,19,00,34,24.50
2016,08,19,00,35,24.60
2016,08,19,00,36,24.80
2016,08,19,00,37,24.90
2016,08,19,00,38,24.90
2016,08,19,00,39,25.00
2016,08,19,00,40,25.00
2016,08,19,00,41,25.10
2016,08,19,00,42,25.10
2016,08,19,00,43,25.10
2016,08,19,00,44,25.10
2016,08,19,00,45,25.20
2016,08,19,00,46,25.20
2016,08,19,00,47,25.20
2016,08,19,00,48,25.20
2016,08,19,00,49,25.20
2016,08,19,00,50,25.20
2016,08,19,00,51,25.20
2016,08,19,00,52,25.20
2016,08,19,00,53,25.20
2016,08,19,00,54,25.20
2016,08,19,00,55,25.20
2016,08,19,00,56,25.20
2016,08,19,00,57,25.20
2016,08,19,00,58,25.20
2016,08,19,00,59,25.20
2016,08,19,01,00,25.20
2016,08,19,01,01,25.20
2016,08,19,01,02,25.30
2016,08,19,01,03,25.30
2016,08,19,01,04,25.30
2016,08,19,01,05,25.30
2016,08,19,01,06,25.30
2016,08,19,01,07,25.40
2016,08,19,01,08,25.40
2016,08,19,01,09,25.40
2016,08,19,01,10,25.50
2016,08,19,01,11,25.50
2016,08,19,01,12,25.60
2016,08,19,01,13,25.60
2016,08,19,01,14,25.70
2016,08,19,01,15,25.70
2016,08,19,01,16,25.70
2016,08,19,01,17,25.70
2016,08,19,01,18,25.80
2016,08,19,01,19,25.80
2016,08,19,01,20,25.80
2016,08,19,01,21,25.80
2016,08,19,01,22,25.80
2016,08,19,01,23,25.80
2016,08,19,01,24,25.80
2016,08,19,01,25,25.80
2016,08,19,01,26,25.80
2016,08,19,01,27,25.80
2016,08,19,01,28,25.90
2016,08,19,01,29,25.90
2016,08,19,01,30,25.90
2016,08,19,01,31,25.90
2016,08,19,01,32,25.90
2016,08,19,01,33,25.90
2016,08,19,01,34,26.00
2016,08,19,01,35,26.00
2016,08,19,01,36,26.00
2016,08,19,01,37,26.00
2016,08,19,01,38,26.00
2016,08,19,01,39,26.00
2016,08,19,01,40,26.00
2016,08,19,01,41,26.00
2016,08,19,01,42,26.00
2016,08,19,01,43,26.00
2016,08,19,01,44,26.00
2016,08,19,01,45,26.00
2016,08,19,01,46,25.90
2016,08,19,01,47,25.60
2016,08,19,01,48,25.20
2016,08,19,01,49,24.70
2016,08,19,01,50,24.20
2016,08,19,01,51,23.80
2016,08,19,01,52,23.30
2016,08,19,01,53,22.90
2016,08,19,01,54,22.50
2016,08,19,01,55,22.10
2016,08,19,01,56,21.80
2016,08,19,01,57,21.50
2016,08,19,01,58,21.30
2016,08,19,01,59,21.00
2016,08,19,02,00,20.70
2016,08,19,02,01,20.50
2016,08,19,02,02,20.30
2016,08,19,02,03,20.20
2016,08,19,02,04,20.20
2016,08,19,02,05,20.20
2016,08,19,02,06,20.20
2016,08,19,02,07,20.30
2016,08,19,02,08,20.30
2016,08,19,02,09,20.40
2016,08,19,02,10,20.40
2016,08,19,02,11,20.50
2016,08,19,02,12,20.50
2016,08,19,02,13,20.60
2016,08,19,02,14,20.70
2016,08,19,02,15,20.70
2016,08,19,02,16,20.80
2016,08,19,02,17,20.80
2016,08,19,02,18,20.80
2016,08,19,02,19,20.80
2016,08,19,02,20,20.80
2016,08,19,02,21,20.80
2016,08,19,02,22,20.80
2016,08,19,02,23,20.80
2016,08,19,02,24,20.80
2016,08,19,02,25,20.80
2016,08,19,02,26,20.80
2016,08,19,02,27,20.80
2016,08,19,02,28,20.80
2016,08,19,02,29,20.90
2016,08,19,02,30,20.90
2016,08,19,02,31,20.90
2016,08,19,02,32,20.90
2016,08,19,02,33,20.90
2016,08,19,02,34,21.00
2016,08,19,02,35,21.00
2016,08,19,02,36,21.10
2016,08,19,02,37,21.10
2016,08,19,02,38,21.10
2016,08,19,02,39,21.20
2016,08,19,02,40,21.30
2016,08,19,02,41,21.30
2016,08,19,02,42,21.40
2016,08,19,02,43,21.50
2016,08,19,02,44,21.60
2016,08,19,02,45,21.70
2016,08,19,02,46,21.80
2016,08,19,02,47,22.00
2016,08,19,02,48,22.30
2016,08,19,02,49,22.60
2016,08,19,02,50,22.80
2016,08,19,02,51,23.10
2016,08,19,02,52,23.30
2016,08,19,02,53,23.40
2016,08,19,02,54,23.60
2016,08,19,02,55,23.70
2016,08,19,02,56,23.80
2016,08,19,02,57,23.90
2016,08,19,02,58,23.90
2016,08,19,02,59,24.00
2016,08,19,03,00,24.00
2016,08,19,03,01,24.00
2016,08,19,03,02,24.00
2016,08,19,03,03,24.00
2016,08,19,03,04,24.00
2016,08,19,03,05,24.00
2016,08,19,03,06,23.90
2016,08,19,03,07,23.90
2016,08,19,03,08,23.70
2016,08,19,03,09,23.50
2016,08,19,03,10,23.30
2016,08,19,03,11,23.00
2016,08,19,03,12,22.90
2016,08,19,03,13,22.70
2016,08,19,03,14,22.60
2016,08,19,03,15,22.40
2016,08,19,03,16,22.30
2016,08,19,03,17,22.30
2016,08,19,03,18,22.30
2016,08,19,03,19,22.30
2016,08,19,03,20,22.30
2016,08,19,03,21,22.30
2016,08,19,03,22,22.40
2016,08,19,03,23,22.50
2016,08,19,03,24,22.70
2016,08,19,03,25,22.80
2016,08,19,03,26,23.00
2016,08,19,03,27,23.20
2016,08,19,03,28,23.40
2016,08,19,03,29,23.50
2016,08,19,03,30,23.60
2016,08,19,03,31,23.70
2016,08,19,03,32,23.80
2016,08,19,03,33,23.80
2016,08,19,03,34,23.90
2016,08,19,03,35,23.90
2016,08,19,03,36,24.00
2016,08,19,03,37,24.00
2016,08,19,03,38,24.00
2016,08,19,03,39,24.10
2016,08,19,03,40,24.10
2016,08,19,03,41,24.10
2016,08,19,03,42,24.20
2016,08,19,03,43,24.20
2016,08,19,03,44,24.20
2016,08,19,03,45,24.20
2016,08,19,03,46,24.20
2016,08,19,03,47,24.20
2016,08,19,03,48,24.20
2016,08,19,03,49,24.20
2016,08,19,03,50,24.20
2016,08,19,03,51,24.10
2016,08,19,03,52,24.10
2016,08,19,03,53,24.10
2016,08,19,03,54,24.00
2016,08,19,03,55,24.00
2016,08,19,03,56,23.90
2016,08,19,03,57,23.80
2016,08,19,03,58,23.70
2016,08,19,03,59,23.60
2016,08,19,04,00,23.60
2016,08,19,04,01,23.50
2016,08,19,04,02,23.40
2016,08,19,04,03,23.30
2016,08,19,04,04,23.20
2016,08,19,04,05,23.10
2016,08,19,04,06,23.10
2016,08,19,04,07,23.00
2016,08,19,04,08,22.90
2016,08,19,04,09,22.80
2016,08,19,04,10,22.70
2016,08,19,04,11,22.60
2016,08,19,04,12,22.50
2016,08,19,04,13,22.40
2016,08,19,04,14,22.30
2016,08,19,04,15,22.30
2016,08,19,04,16,22.20
2016,08,19,04,17,22.10
2016,08,19,04,18,22.10
2016,08,19,04,19,22.00
2016,08,19,04,20,21.90
2016,08,19,04,21,21.90
2016,08,19,04,22,21.80
2016,08,19,04,23,21.80
2016,08,19,04,24,21.80
2016,08,19,04,25,21.70
2016,08,19,04,26,21.70
2016,08,19,04,27,21.70
2016,08,19,04,28,21.70
2016,08,19,04,29,21.70
2016,08,19,04,30,21.70
2016,08,19,04,31,21.70
2016,08,19,04,32,21.60
2016,08,19,04,33,21.60
2016,08,19,04,34,21.60
2016,08,19,04,35,21.60
2016,08,19,04,36,21.60
2016,08,19,04,37,21.60
2016,08,19,04,38,21.60
2016,08,19,04,39,21.60
2016,08,19,04,40,21.60
2016,08,19,04,41,21.60
2016,08,19,04,42,21.70
2016,08,19,04,43,21.70
2016,08,19,04,44,21.70
2016,08,19,04,45,21.70
2016,08,19,04,46,21.70
2016,08,19,04,47,21.80
2016,08,19,04,48,21.80
2016,08,19,04,49,21.80
2016,08,19,04,50,21.90
2016,08,19,04,51,21.90
2016,08,19,04,52,22.00
2016,08,19,04,53,22.00
2016,08,19,04,54,22.00
2016,08,19,04,55,22.00
2016,08,19,04,56,21.90
2016,08,19,04,57,21.90
2016,08,19,04,58,21.90
2016,08,19,04,59,21.90
2016,08,19,05,00,21.90
2016,08,19,05,01,21.90
2016,08,19,05,02,21.80
2016,08,19,05,03,21.80
2016,08,19,05,04,21.80
2016,08,19,05,05,21.80
2016,08,19,05,06,21.70
2016,08,19,05,07,21.70
2016,08,19,05,08,21.70
2016,08,19,05,09,21.70
2016,08,19,05,10,21.60
2016,08,19,05,11,21.60
2016,08,19,05,12,21.50
2016,08,19,05,13,21.40
2016,08,19,05,14,21.40
2016,08,19,05,15,21.30
2016,08,19,05,16,21.30
2016,08,19,05,17,21.30
2016,08,19,05,18,21.20
2016,08,19,05,19,21.20
2016,08,19,05,20,21.10
2016,08,19,05,21,21.10
2016,08,19,05,22,21.00
2016,08,19,05,23,21.00
2016,08,19,05,24,20.90
2016,08,19,05,25,20.90
2016,08,19,05,26,20.80
2016,08,19,05,27,20.80
2016,08,19,05,28,20.70
2016,08,19,05,29,20.70
2016,08,19,05,30,20.60
2016,08,19,05,31,20.60
2016,08,19,05,32,20.50
2016,08,19,05,33,20.40
2016,08,19,05,34,20.40
2016,08,19,05,35,20.30
2016,08,19,05,36,20.30
2016,08,19,05,37,20.30
2016,08,19,05,38,20.20
2016,08,19,05,39,20.20
2016,08,19,05,40,20.10
2016,08,19,05,41,20.10
2016,08,19,05,42,20.10
2016,08,19,05,43,20.00
2016,08,19,05,44,20.00
2016,08,19,05,45,20.00
2016,08,19,05,46,20.00
2016,08,19,05,47,20.00
2016,08,19,05,48,20.10
2016,08,19,05,49,20.00
2016,08,19,05,50,20.10
2016,08,19,05,51,20.10
2016,08,19,05,52,20.00
2016,08,19,05,53,20.00
2016,08,19,05,54,20.00
2016,08,19,05,55,20.00
2016,08,19,05,56,20.00
2016,08,19,05,57,20.00
2016,08,19,05,58,20.00
2016,08,19,05,59,20.00
2016,08,19,06,00,20.00
2016,08,19,06,01,20.00
2016,08,19,06,02,20.00
2016,08,19,06,03,20.00
2016,08,19,06,04,20.00
2016,08,19,06,05,20.00
2016,08,19,06,06,20.10
2016,08,19,06,07,20.10
2016,08,19,06,08,20.20
2016,08,19,06,09,20.20
2016,08,19,06,10,20.20
2016,08,19,06,11,20.20
2016,08,19,06,12,20.30
2016,08,19,06,13,20.30
2016,08,19,06,14,20.30
2016,08,19,06,15,20.30
2016,08,19,06,16,20.20
2016,08,19,06,17,20.20
2016,08,19,06,18,20.20
2016,08,19,06,19,20.20
2016,08,19,06,20,20.20
2016,08,19,06,21,20.20
2016,08,19,06,22,20.20
2016,08,19,06,23,20.20
2016,08,19,06,24,20.20
2016,08,19,06,25,20.10
2016,08,19,06,26,20.10
2016,08,19,06,27,20.10
2016,08,19,06,28,20.10
2016,08,19,06,29,20.10
2016,08,19,06,30,20.10
2016,08,19,06,31,20.10
2016,08,19,06,32,20.10
2016,08,19,06,33,20.00
2016,08,19,06,34,20.00
2016,08,19,06,35,20.00
2016,08,19,06,36,20.00
2016,08,19,06,37,20.00
2016,08,19,06,38,19.90
2016,08,19,06,39,19.90
2016,08,19,06,40,19.90
2016,08,19,06,41,19.90
2016,08,19,06,42,19.90
2016,08,19,06,43,19.90
2016,08,19,06,44,19.90
2016,08,19,06,45,19.90
2016,08,19,06,46,19.90
2016,08,19,06,47,19.90
2016,08,19,06,48,19.90
2016,08,19,06,49,19.90
2016,08,19,06,50,19.90
2016,08,19,06,51,19.90
2016,08,19,06,52,19.90
2016,08,19,06,53,19.90
2016,08,19,06,54,19.80
2016,08,19,06,55,19.80
2016,08,19,06,56,19.80
2016,08,19,06,57,19.80
2016,08,19,06,58,19.80
2016,08,19,06,59,19.80
2016,08,19,07,00,19.80
2016,08,19,07,01,19.80
2016,08,19,07,02,19.80
2016,08,19,07,03,19.80
2016,08,19,07,04,19.80
2016,08,19,07,05,19.80
2016,08,19,07,06,19.90
2016,08,19,07,07,19.90
2016,08,19,07,08,19.90
2016,08,19,07,09,20.00
2016,08,19,07,10,20.00
2016,08,19,07,11,20.00
2016,08,19,07,12,20.00
2016,08,19,07,13,20.00
2016,08,19,07,14,20.00
2016,08,19,07,15,20.00
2016,08,19,07,16,20.10
2016,08,19,07,17,20.10
2016,08,19,07,18,20.10
2016,08,19,07,19,20.10
2016,08,19,07,20,20.20
2016,08,19,07,21,20.20
2016,08,19,07,22,20.30
2016,08,19,07,23,20.30
2016,08,19,07,24,20.40
2016,08,19,07,25,20.40
2016,08,19,07,26,20.50
2016,08,19,07,27,20.50
2016,08,19,07,28,20.50
2016,08,19,07,29,20.60
2016,08,19,07,30,20.60
2016,08,19,07,31,20.60
2016,08,19,07,32,20.60
2016,08,19,07,33,20.60
2016,08,19,07,34,20.70
2016,08,19,07,35,20.70
2016,08,19,07,36,20.70
2016,08,19,07,37,20.80
2016,08,19,07,38,20.80
2016,08,19,07,39,20.80
2016,08,19,07,40,20.90
2016,08,19,07,41,20.90
2016,08,19,07,42,21.00
2016,08,19,07,43,21.00
2016,08,19,07,44,21.10
2016,08,19,07,45,21.10
2016,08,19,07,46,21.20
2016,08,19,07,47,21.30
2016,08,19,07,48,21.30
2016,08,19,07,49,21.40
2016,08,19,07,50,21.40
2016,08,19,07,51,21.40
2016,08,19,07,52,21.50
2016,08,19,07,53,21.50
2016,08,19,07,54,21.60
2016,08,19,07,55,21.60
2016,08,19,07,56,21.60
2016,08,19,07,57,21.70
2016,08,19,07,58,21.70
2016,08,19,07,59,21.70
2016,08,19,08,00,21.80
2016,08,19,08,01,21.80
2016,08,19,08,02,21.80
2016,08,19,08,03,21.90
2016,08,19,08,04,21.90
2016,08,19,08,05,21.90
2016,08,19,08,06,22.00
2016,08,19,08,07,22.10
2016,08,19,08,08,22.10
2016,08,19,08,09,22.10
2016,08,19,08,10,22.20
2016,08,19,08,11,22.20
2016,08,19,08,12,22.30
2016,08,19,08,13,22.30
2016,08,19,08,14,22.30
2016,08,19,08,15,22.40
2016,08,19,08,16,22.40
2016,08,19,08,17,22.50
2016,08,19,08,18,22.50
2016,08,19,08,19,22.50
2016,08,19,08,20,22.60
2016,08,19,08,21,22.60
2016,08,19,08,22,22.60
2016,08,19,08,23,22.70
2016,08,19,08,24,22.70
2016,08,19,08,25,22.70
2016,08,19,08,26,22.70
2016,08,19,08,27,22.70
2016,08,19,08,28,22.80
2016,08,19,08,29,22.80
2016,08,19,08,30,22.80
2016,08,19,08,31,22.90
2016,08,19,08,32,22.90
2016,08,19,08,33,23.00
2016,08,19,08,34,23.00
2016,08,19,08,35,23.10
2016,08,19,08,36,23.20
2016,08,19,08,37,23.30
2016,08,19,08,38,23.30
2016,08,19,08,39,23.40
2016,08,19,08,40,23.50
2016,08,19,08,41,23.60
2016,08,19,08,42,23.70
2016,08,19,08,43,23.80
2016,08,19,08,44,23.90
2016,08,19,08,45,23.90
2016,08,19,08,46,24.00
2016,08,19,08,47,24.10
2016,08,19,08,48,24.20
2016,08,19,08,49,24.20
2016,08,19,08,50,24.30
2016,08,19,08,51,24.30
2016,08,19,08,52,24.40
2016,08,19,08,53,24.40
2016,08,19,08,54,24.40
2016,08,19,08,55,24.50
2016,08,19,08,56,24.60
2016,08,19,08,57,24.60
2016,08,19,08,58,24.70
2016,08,19,08,59,24.70
2016,08,19,09,00,24.70
2016,08,19,09,01,24.80
2016,08,19,09,02,24.80
2016,08,19,09,03,24.80
2016,08,19,09,04,24.90
2016,08,19,09,05,24.90
2016,08,19,09,06,24.90
2016,08,19,09,07,24.90
2016,08,19,09,08,25.00
2016,08,19,09,09,25.00
2016,08,19,09,10,25.00
2016,08,19,09,11,25.00
2016,08,19,09,12,25.00
2016,08,19,09,13,25.00
2016,08,19,09,14,25.00
2016,08,19,09,15,25.00
2016,08,19,09,16,25.10
2016,08,19,09,17,25.10
2016,08,19,09,18,25.10
2016,08,19,09,19,25.10
2016,08,19,09,20,25.10
2016,08,19,09,21,25.10
2016,08,19,09,22,25.20
2016,08,19,09,23,25.20
2016,08,19,09,24,25.20
2016,08,19,09,25,25.30
2016,08,19,09,26,25.30
2016,08,19,09,27,25.30
2016,08,19,09,28,25.40
2016,08,19,09,29,25.40
2016,08,19,09,30,25.40
2016,08,19,09,31,25.40
2016,08,19,09,32,25.50
2016,08,19,09,33,25.50
2016,08,19,09,34,25.60
2016,08,19,09,35,25.60
2016,08,19,09,36,25.60
2016,08,19,09,37,25.70
2016,08,19,09,38,25.70
2016,08,19,09,39,25.70
2016,08,19,09,40,25.70
2016,08,19,09,41,25.80
2016,08,19,09,42,25.80
2016,08,19,09,43,25.80
2016,08,19,09,44,25.80
2016,08,19,09,45,25.80
2016,08,19,09,46,25.90
2016,08,19,09,47,25.90
2016,08,19,09,48,25.90
2016,08,19,09,49,25.90
2016,08,19,09,50,25.90
2016,08,19,09,51,25.90
2016,08,19,09,52,25.90
2016,08,19,09,53,25.90
2016,08,19,09,54,25.90
2016,08,19,09,55,25.90
2016,08,19,09,56,25.90
2016,08,19,09,57,25.90
2016,08,19,09,58,26.00
2016,08,19,09,59,26.00
2016,08,19,10,00,26.00
2016,08,19,10,01,26.00
2016,08,19,10,02,26.00
2016,08,19,10,03,26.10
2016,08,19,10,04,26.10
2016,08,19,10,05,26.10
2016,08,19,10,06,26.20
2016,08,19,10,07,26.20
2016,08,19,10,08,26.30
2016,08,19,10,09,26.30
2016,08,19,10,10,26.30
2016,08,19,10,11,26.30
2016,08,19,10,12,26.40
2016,08,19,10,13,26.40
2016,08,19,10,14,26.40
2016,08,19,10,15,26.40
2016,08,19,10,16,26.40
2016,08,19,10,17,26.40
2016,08,19,10,18,26.40
2016,08,19,10,19,26.40
2016,08,19,10,20,26.50
2016,08,19,10,21,26.60
2016,08,19,10,22,26.60
2016,08,19,10,23,26.60
2016,08,19,10,24,26.60
2016,08,19,10,25,26.70
2016,08,19,10,26,26.70
2016,08,19,10,27,26.80
2016,08,19,10,28,26.80
2016,08,19,10,29,26.80
2016,08,19,10,30,26.90
2016,08,19,10,31,26.90
2016,08,19,10,32,26.90
2016,08,19,10,33,26.90
2016,08,19,10,34,27.00
2016,08,19,10,35,26.90
2016,08,19,10,36,26.90
2016,08,19,10,37,26.90
2016,08,19,10,38,26.90
2016,08,19,10,39,26.90
2016,08,19,10,40,26.90
2016,08,19,10,41,26.90
2016,08,19,10,42,27.00
2016,08,19,10,43,27.10
2016,08,19,10,44,27.10
2016,08,19,10,45,27.10
2016,08,19,10,46,27.20
2016,08,19,10,47,27.20
2016,08,19,10,48,27.20
2016,08,19,10,49,27.30
2016,08,19,10,50,27.30
2016,08,19,10,51,27.30
2016,08,19,10,52,27.30
2016,08,19,10,53,27.40
2016,08,19,10,54,27.40
2016,08,19,10,55,27.40
2016,08,19,10,56,27.50
2016,08,19,10,57,27.40
2016,08,19,10,58,27.30
2016,08,19,10,59,27.20
2016,08,19,11,00,27.10
2016,08,19,11,01,27.10
2016,08,19,11,02,27.10
2016,08,19,11,03,27.10
2016,08,19,11,04,27.10
2016,08,19,11,05,27.10
2016,08,19,11,06,27.10
2016,08,19,11,07,27.10
2016,08,19,11,08,27.10
2016,08,19,11,09,27.10
2016,08,19,11,10,27.20
2016,08,19,11,11,27.20
2016,08,19,11,12,27.30
2016,08,19,11,13,27.30
2016,08,19,11,14,27.30
2016,08,19,11,15,27.30
2016,08,19,11,16,27.20
2016,08,19,11,17,27.20
2016,08,19,11,18,27.30
2016,08,19,11,19,27.30
2016,08,19,11,20,27.30
2016,08,19,11,21,27.30
2016,08,19,11,22,27.40
2016,08,19,11,23,27.50
2016,08,19,11,24,27.60
2016,08,19,11,25,27.60
2016,08,19,11,26,27.70
2016,08,19,11,27,27.80
2016,08,19,11,28,27.90
2016,08,19,11,29,27.90
2016,08,19,11,30,27.90
2016,08,19,11,31,27.90
2016,08,19,11,32,27.90
2016,08,19,11,33,27.90
2016,08,19,11,34,27.90
2016,08,19,11,35,27.90
2016,08,19,11,36,27.80
2016,08,19,11,37,27.80
2016,08,19,11,38,27.80
2016,08,19,11,39,27.90
2016,08,19,11,40,27.90
2016,08,19,11,41,27.80
2016,08,19,11,42,27.80
2016,08,19,11,43,27.70
2016,08,19,11,44,27.70
2016,08,19,11,45,27.70
2016,08,19,11,46,27.70
2016,08,19,11,47,27.70
2016,08,19,11,48,27.70
2016,08,19,11,49,27.60
2016,08,19,11,50,27.60
2016,08,19,11,51,27.60
2016,08,19,11,52,27.50
2016,08,19,11,53,27.50
2016,08,19,11,54,27.50
2016,08,19,11,55,27.60
2016,08,19,11,56,27.60
2016,08,19,11,57,27.70
2016,08,19,11,58,27.70
2016,08,19,11,59,27.70
2016,08,19,12,00,27.60
2016,08,19,12,01,27.60
2016,08,19,12,02,27.60
2016,08,19,12,03,27.60
2016,08,19,12,04,27.60
2016,08,19,12,05,27.60
2016,08,19,12,06,27.60
2016,08,19,12,07,27.50
2016,08,19,12,08,27.40
2016,08,19,12,09,27.40
2016,08,19,12,10,27.40
2016,08,19,12,11,27.50
2016,08,19,12,12,27.50
2016,08,19,12,13,27.50
2016,08,19,12,14,27.50
2016,08,19,12,15,27.50
2016,08,19,12,16,27.60
2016,08,19,12,17,27.60
2016,08,19,12,18,27.60
2016,08,19,12,19,27.60
2016,08,19,12,20,27.60
2016,08,19,12,21,27.70
2016,08,19,12,22,27.80
2016,08,19,12,23,27.90
2016,08,19,12,24,27.90
2016,08,19,12,25,27.90
2016,08,19,12,26,27.90
2016,08,19,12,27,27.90
2016,08,19,12,28,27.90
2016,08,19,12,29,27.90
2016,08,19,12,30,27.90
2016,08,19,12,31,27.90
2016,08,19,12,32,27.90
2016,08,19,12,33,28.00
2016,08,19,12,34,28.00
2016,08,19,12,35,28.10
2016,08,19,12,36,28.20
2016,08,19,12,37,28.20
2016,08,19,12,38,28.20
2016,08,19,12,39,28.20
2016,08,19,12,40,28.30
2016,08,19,12,41,28.30
2016,08,19,12,42,28.30
2016,08,19,12,43,28.30
2016,08,19,12,44,28.40
2016,08,19,12,45,28.30
2016,08,19,12,46,28.30
2016,08,19,12,47,28.30
2016,08,19,12,48,28.20
2016,08,19,12,49,28.20
2016,08,19,12,50,28.20
2016,08,19,12,51,28.20
2016,08,19,12,52,28.20
2016,08,19,12,53,28.20
2016,08,19,12,54,28.20
2016,08,19,12,55,28.30
2016,08,19,12,56,28.30
2016,08,19,12,57,28.40
2016,08,19,12,58,28.50
2016,08,19,12,59,28.60
2016,08,19,13,00,28.60
2016,08,19,13,01,28.60
2016,08,19,13,02,28.70
2016,08,19,13,03,28.80
2016,08,19,13,04,28.80
2016,08,19,13,05,29.00
2016,08,19,13,06,29.10
2016,08,19,13,07,29.20
2016,08,19,13,08,29.30
2016,08,19,13,09,29.40
2016,08,19,13,10,29.50
2016,08,19,13,11,29.50
2016,08,19,13,12,29.60
2016,08,19,13,13,29.70
2016,08,19,13,14,29.70
2016,08,19,13,15,29.80
2016,08,19,13,16,29.90
2016,08,19,13,17,29.90
2016,08,19,13,18,30.00
2016,08,19,13,19,30.00
2016,08,19,13,20,30.10
2016,08,19,13,21,30.10
2016,08,19,13,22,30.10
2016,08,19,13,23,30.10
2016,08,19,13,24,30.10
2016,08,19,13,25,30.10
2016,08,19,13,26,30.20
2016,08,19,13,27,30.20
2016,08,19,13,28,30.30
2016,08,19,13,29,30.30
2016,08,19,13,30,30.40
2016,08,19,13,31,30.50
2016,08,19,13,32,30.60
2016,08,19,13,33,30.60
2016,08,19,13,34,30.40
2016,08,19,13,35,30.30
2016,08,19,13,36,30.20
2016,08,19,13,37,30.10
2016,08,19,13,38,30.00
2016,08,19,13,39,30.10
2016,08,19,13,40,30.10
2016,08,19,13,41,30.10
2016,08,19,13,42,30.10
2016,08,19,13,43,30.10
2016,08,19,13,44,30.00
2016,08,19,13,45,30.00
2016,08,19,13,46,30.10
2016,08,19,13,47,30.10
2016,08,19,13,48,30.20
2016,08,19,13,49,30.30
2016,08,19,13,50,30.40
2016,08,19,13,51,30.40
2016,08,19,13,52,30.40
2016,08,19,13,53,30.30
2016,08,19,13,54,30.30
2016,08,19,13,55,30.30
2016,08,19,13,56,30.30
2016,08,19,13,57,30.30
2016,08,19,13,58,30.30
2016,08,19,13,59,30.20
2016,08,19,14,00,30.20
2016,08,19,14,01,30.20
2016,08,19,14,02,30.30
2016,08,19,14,03,30.30
2016,08,19,14,04,30.40
2016,08,19,14,05,30.40
2016,08,19,14,06,30.50
2016,08,19,14,07,30.50
2016,08,19,14,08,30.50
2016,08,19,14,09,30.50
2016,08,19,14,10,30.40
2016,08,19,14,11,30.40
2016,08,19,14,12,30.30
2016,08,19,14,13,30.20
2016,08,19,14,14,30.20
2016,08,19,14,15,30.20
2016,08,19,14,16,30.20
2016,08,19,14,17,30.20
2016,08,19,14,18,30.30
2016,08,19,14,19,30.40
2016,08,19,14,20,30.50
2016,08,19,14,21,30.70
2016,08,19,14,22,30.80
2016,08,19,14,23,30.90
2016,08,19,14,24,31.00
2016,08,19,14,25,31.10
2016,08,19,14,26,31.20
2016,08,19,14,27,31.20
2016,08,19,14,28,31.20
2016,08,19,14,29,31.20
2016,08,19,14,30,31.20
2016,08,19,14,31,31.20
2016,08,19,14,32,31.30
2016,08,19,14,33,31.30
2016,08,19,14,34,31.40
2016,08,19,14,35,31.40
2016,08,19,14,36,31.40
2016,08,19,14,37,31.50
2016,08,19,14,38,31.60
2016,08,19,14,39,31.60
2016,08,19,14,40,31.60
2016,08,19,14,41,31.50
2016,08,19,14,42,31.40
2016,08,19,14,43,31.40
2016,08,19,14,44,31.40
2016,08,19,14,45,31.50
2016,08,19,14,46,31.60
2016,08,19,14,47,31.70
2016,08,19,14,48,31.80
2016,08,19,14,49,31.90
2016,08,19,14,50,32.10
2016,08,19,14,51,32.20
2016,08,19,14,52,32.20
2016,08,19,14,53,32.20
2016,08,19,14,54,32.20
2016,08,19,14,55,32.10
2016,08,19,14,56,32.10
2016,08,19,14,57,32.10
2016,08,19,14,58,32.00
2016,08,19,14,59,31.90
2016,08,19,15,00,31.90
2016,08,19,15,01,31.90
2016,08,19,15,02,31.90
2016,08,19,15,03,31.90
2016,08,19,15,04,32.00
2016,08,19,15,05,32.10
2016,08,19,15,06,32.10
2016,08,19,15,07,32.20
2016,08,19,15,08,32.30
2016,08,19,15,09,32.30
2016,08,19,15,10,32.30
2016,08,19,15,11,32.30
2016,08,19,15,12,32.30
2016,08,19,15,13,32.30
2016,08,19,15,14,32.30
2016,08,19,15,15,32.30
2016,08,19,15,16,32.40
2016,08,19,15,17,32.40
2016,08,19,15,18,32.40
2016,08,19,15,19,32.50
2016,08,19,15,20,32.50
2016,08,19,15,21,32.40
2016,08,19,15,22,32.30
2016,08,19,15,23,32.10
2016,08,19,15,24,31.80
2016,08,19,15,25,31.60
2016,08,19,15,26,31.30
2016,08,19,15,27,31.10
2016,08,19,15,28,30.80
2016,08,19,15,29,30.60
2016,08,19,15,30,30.40
2016,08,19,15,31,30.30
2016,08,19,15,32,30.20
2016,08,19,15,33,30.00
2016,08,19,15,34,29.90
2016,08,19,15,35,29.90
2016,08,19,15,36,29.80
2016,08,19,15,37,29.70
2016,08,19,15,38,29.60
2016,08,19,15,39,29.50
2016,08,19,15,40,29.40
2016,08,19,15,41,29.40
2016,08,19,15,42,29.40
2016,08,19,15,43,29.40
2016,08,19,15,44,29.60
2016,08,19,15,45,29.60
2016,08,19,15,46,29.70
2016,08,19,15,47,29.70
2016,08,19,15,48,29.70
2016,08,19,15,49,29.70
2016,08,19,15,50,29.80
2016,08,19,15,51,29.80
2016,08,19,15,52,29.80
2016,08,19,15,53,29.80
2016,08,19,15,54,29.80
2016,08,19,15,55,29.80
2016,08,19,15,56,29.80
2016,08,19,15,57,29.80
2016,08,19,15,58,29.80
2016,08,19,15,59,29.80
2016,08,19,16,00,29.70
2016,08,19,16,01,29.70
2016,08,19,16,02,29.80
2016,08,19,16,03,29.80
2016,08,19,16,04,29.80
2016,08,19,16,05,29.90
2016,08,19,16,06,29.90
2016,08,19,16,07,29.90
2016,08,19,16,08,29.90
2016,08,19,16,09,29.80
2016,08,19,16,10,29.80
2016,08,19,16,11,29.80
2016,08,19,16,12,29.80
2016,08,19,16,13,29.90
2016,08,19,16,14,30.00
2016,08,19,16,15,30.10
2016,08,19,16,16,30.20
2016,08,19,16,17,30.30
2016,08,19,16,18,30.30
2016,08,19,16,19,30.30
2016,08,19,16,20,30.40
2016,08,19,16,21,30.40
2016,08,19,16,22,30.40
2016,08,19,16,23,30.40
2016,08,19,16,24,30.40
2016,08,19,16,25,30.40
2016,08,19,16,26,30.40
2016,08,19,16,27,30.40
2016,08,19,16,28,30.40
2016,08,19,16,29,30.40
2016,08,19,16,30,30.30
2016,08,19,16,31,30.30
2016,08,19,16,32,30.30
2016,08,19,16,33,30.20
2016,08,19,16,34,30.20
2016,08,19,16,35,30.20
2016,08,19,16,36,30.20
2016,08,19,16,37,30.10
2016,08,19,16,38,30.10
2016,08,19,16,39,30.10
2016,08,19,16,40,30.00
2016,08,19,16,41,30.00
2016,08,19,16,42,29.90
2016,08,19,16,43,29.80
2016,08,19,16,44,29.80
2016,08,19,16,45,29.80
2016,08,19,16,46,29.80
2016,08,19,16,47,29.70
2016,08,19,16,48,29.60
2016,08,19,16,49,29.40
2016,08,19,16,50,29.30
2016,08,19,16,51,29.00
2016,08,19,16,52,28.80
2016,08,19,16,53,28.60
2016,08,19,16,54,28.40
2016,08,19,16,55,28.20
2016,08,19,16,56,28.00
2016,08,19,16,57,27.90
2016,08,19,16,58,27.80
2016,08,19,16,59,27.80
2016,08,19,17,00,27.70
2016,08,19,17,01,27.80
2016,08,19,17,02,27.80
2016,08,19,17,03,27.80
2016,08,19,17,04,27.80
2016,08,19,17,05,27.90
2016,08,19,17,06,28.00
2016,08,19,17,07,28.10
2016,08,19,17,08,28.20
2016,08,19,17,09,28.30
2016,08,19,17,10,28.30
2016,08,19,17,11,28.40
2016,08,19,17,12,28.50
2016,08,19,17,13,28.60
2016,08,19,17,14,28.70
2016,08,19,17,15,28.80
2016,08,19,17,16,28.80
2016,08,19,17,17,28.90
2016,08,19,17,18,29.00
2016,08,19,17,19,29.10